7 * 24
多渠道服务支持
STARLINK-2095是美国SpaceX公司星链星座的成员,于2021年2月16日发射升空,是星链低轨互联网星座组网进程中的一颗卫星。星链星座旨在为全球提供覆盖广泛的低延迟宽带互联网服务,该卫星承担星座部分通信组网任务,运行在近地轨道,服务全球互联网接入布局。
美国
(US)
| 数据来源 | 国际轨道数据 |
| 星历时间: | 2026-04-20T21:47:54+0800 轨道信息已过期34天 |
| 半长轴: | 6562.544km |
| 偏心率: | 0.0003483 |
| 轨道倾角: | 53.002° |
| 近地点辐角 | 334.225° |
| 升交点赤经 | 133.949° |
| 平近点角 | 25.862° |
| 近地点: | 182.121km |
| 远地点: | 186.693km |
| 周期: | 88.180分钟 |
| 每日圈数: | 16.330312 |